Temp
-11 -11 -10 -10 -10 -10 -10 -10 -10 -9 -9 -10 -9 -9 -9 -9 -9 -10 -10 -10 -10 -10 -10 -9 -9 -9 -9 -9 -9 -9 -8 -8 -8 -8 -8 -9 -9 -8 -9 -9 -11 -10 -10 -9 -8
-11 -11 -11 -11 -10 -10 -10 -10 -10 -10 -10 -10 -10 -10 -10 -10 -10 -10 -10 -10 -10 -10 -10 -10 -9 -9 -9 -10 -9 -8 -8 -8 -9 -9 -9 -10 -10 -11 -10 -10 -10 -12 -11 -10 -10
-11 -11 -11 -11 -10 -10 -10 -10 -10 -10 -10 -10 -10 -10 -10 -10 -10 -10 -10 -10 -10 -10 -10 -10 -10 -9 -10 -9 -9 -9 -8 -9 -9 -9 -9 -9 -10 -11 -10 -10 -10 -11 -12 -12 -11
-11 -11 -11 -11 -11 -11 -11 -11 -11 -10 -10 -10 -10 -10 -10 -10 -10 -10 -10 -10 -10 -10 -10 -10 -10 -10 -10 -9 -10 -8 -8 -9 -9 -9 -9 -9 -11 -11 -10 -9 -10 -10 -11 -11 -10
-11 -11 -11 -11 -11 -11 -11 -11 -11 -11 -11 -11 -11 -11 -11 -11 -11 -11 -11 -11 -11 -10 -10 -10 -10 -10 -10 -10 -10 -9 -10 -9 -9 -9 -10 -10 -10 -10 -9 -10 -10 -10 -10 -10 -10
-10 -11 -11 -11 -11 -11 -11 -11 -11 -11 -11 -11 -11 -11 -11 -11 -12 -11 -11 -11 -11 -11 -11 -11 -10 -10 -10 -11 -11 -11 -10 -10 -10 -10 -10 -10 -10 -10 -9 -11 -11 -11 -11 -11 -11
-10 -10 -10 -10 -10 -10 -11 -11 -11 -11 -11 -11 -11 -11 -11 -11 -12 -12 -11 -12 -12 -12 -12 -12 -12 -12 -12 -12 -11 -11 -11 -11 -11 -11 -12 -13 -11 -9 -10 -12 -12 -13 -13 -13 -12
-10 -10 -10 -10 -10 -10 -10 -10 -10 -10 -10 -10 -11 -11 -11 -11 -12 -12 -12 -12 -12 -12 -12 -12 -12 -12 -12 -12 -12 -12 -12 -12 -13 -13 -13 -14 -10 -10 -12 -13 -12 -12 -12 -14 -13
-10 -10 -10 -10 -10 -10 -10 -10 -10 -10 -10 -11 -11 -11 -11 -11 -11 -11 -11 -12 -12 -12 -13 -13 -13 -13 -13 -13 -13 -13 -12 -12 -13 -14 -13 -13 -10 -11 -12 -12 -11 -11 -11 -12 -13
-11 -10 -10 -10 -10 -10 -10 -10 -10 -10 -10 -11 -11 -11 -11 -11 -11 -11 -11 -11 -11 -12 -13 -12 -13 -13 -13 -13 -13 -13 -13 -13 -13 -14 -13 -13 -12 -12 -12 -13 -11 -12 -12 -12 -13
-11 -11 -11 -11 -10 -10 -10 -10 -10 -11 -11 -11 -11 -11 -11 -11 -11 -11 -11 -12 -12 -12 -12 -12 -12 -13 -13 -13 -13 -13 -13 -13 -13 -13 -13 -13 -13 -13 -14 -12 -12 -12 -12 -12 -12
-11 -11 -11 -10 -11 -11 -11 -11 -11 -11 -11 -11 -11 -11 -11 -11 -11 -11 -12 -12 -12 -12 -12 -12 -12 -13 -13 -13 -13 -13 -13 -13 -13 -14 -14 -14 -13 -14 -15 -15 -13 -13 -13 -13 -14
-11 -11 -11 -11 -10 -11 -11 -11 -11 -11 -11 -11 -11 -11 -11 -11 -12 -12 -12 -12 -12 -13 -13 -12 -13 -13 -13 -13 -13 -13 -13 -13 -14 -14 -14 -14 -13 -14 -14 -14 -15 -14 -14 -14 -14
-11 -11 -11 -11 -11 -11 -11 -11 -11 -11 -11 -11 -12 -12 -12 -12 -13 -12 -12 -13 -13 -13 -13 -13 -14 -14 -14 -13 -14 -14 -14 -14 -14 -14 -14 -14 -12 -13 -14 -15 -16 -16 -16 -16 -16
-11 -12 -11 -11 -11 -11 -11 -11 -11 -12 -12 -11 -12 -12 -12 -13 -12 -13 -13 -13 -13 -13 -13 -14 -14 -14 -14 -14 -15 -14 -15 -14 -15 -15 -14 -14 -13 -12 -14 -14 -15 -15 -15 -15 -15
-11 -11 -11 -12 -11 -11 -11 -11 -12 -12 -12 -12 -11 -11 -11 -12 -13 -13 -13 -13 -13 -14 -14 -14 -15 -15 -14 -15 -16 -16 -15 -15 -15 -14 -13 -14 -14 -12 -15 -16 -16 -16 -16 -16 -15
-11 -11 -11 -12 -12 -12 -12 -12 -12 -13 -13 -12 -12 -11 -11 -13 -13 -13 -13 -12 -13 -13 -13 -14 -14 -15 -16 -16 -16 -16 -16 -16 -15 -15 -14 -16 -15 -14 -16 -17 -17 -17 -16 -17 -17
-11 -11 -12 -12 -12 -12 -12 -13 -13 -13 -13 -13 -12 -12 -13 -13 -14 -14 -14 -15 -15 -16 -16 -15 -13 -14 -15 -16 -16 -16 -17 -17 -16 -15 -15 -16 -16 -16 -16 -17 -18 -18 -17 -17 -17
-11 -12 -12 -12 -12 -12 -12 -13 -13 -13 -13 -12 -12 -13 -14 -15 -15 -14 -14 -15 -15 -16 -15 -15 -15 -15 -16 -16 -17 -17 -17 -17 -17 -18 -17 -17 -17 -17 -17 -17 -18 -18 -18 -18 -17
-12 -12 -12 -12 -12 -12 -12 -12 -13 -13 -13 -12 -12 -13 -14 -15 -15 -15 -14 -15 -15 -16 -16 -16 -15 -15 -16 -16 -17 -17 -17 -17 -18 -18 -18 -18 -18 -18 -17 -18 -18 -18 -18 -19 -18
-12 -13 -12 -12 -12 -12 -12 -13 -13 -13 -13 -13 -13 -13 -13 -13 -14 -14 -14 -15 -16 -15 -16 -15 -16 -16 -16 -16 -16 -17 -18 -18 -18 -19 -19 -19 -19 -20 -20 -19 -18 -19 -19 -19 -19
-12 -13 -13 -13 -13 -12 -12 -13 -13 -13 -13 -13 -13 -13 -13 -13 -13 -14 -15 -15 -15 -15 -15 -15 -15 -15 -16 -16 -17 -18 -18 -19 -20 -20 -21 -21 -20 -20 -20 -20 -19 -20 -19 -19 -19
-13 -13 -13 -13 -13 -13 -13 -13 -13 -13 -13 -14 -13 -13 -14 -15 -14 -14 -15 -15 -15 -15 -15 -16 -16 -16 -15 -16 -17 -18 -19 -20 -21 -21 -20 -21 -21 -21 -21 -21 -20 -19 -20 -20 -20
-13 -13 -14 -14 -13 -14 -13 -14 -14 -14 -14 -14 -14 -14 -14 -14 -15 -15 -15 -15 -16 -16 -16 -16 -16 -16 -16 -16 -17 -18 -19 -20 -21 -20 -20 -21 -21 -21 -21 -21 -20 -19 -18 -19 -19
-14 -14 -14 -15 -14 -14 -15 -14 -14 -14 -14 -14 -14 -14 -15 -15 -15 -15 -15 -15 -16 -16 -16 -16 -16 -16 -16 -18 -18 -19 -19 -20 -21 -20 -20 -20 -21 -22 -21 -21 -21 -19 -20 -19 -20
-14 -14 -14 -15 -15 -15 -15 -15 -15 -15 -15 -15 -15 -15 -15 -15 -15 -15 -15 -16 -16 -17 -17 -16 -16 -16 -17 -19 -19 -19 -20 -20 -20 -21 -21 -21 -21 -20 -20 -21 -21 -20 -20 -20 -20
-15 -15 -15 -16 -15 -16 -16 -16 -16 -15 -16 -15 -15 -16 -16 -16 -16 -16 -16 -16 -16 -16 -16 -16 -16 -17 -18 -19 -20 -20 -20 -20 -20 -20 -21 -21 -20 -20 -20 -20 -20 -20 -20 -20 -20
Height
5771 5773 5774 5775 5777 5778 5779 5781 5783 5785 5787 5790 5791 5793 5795 5797 5798 5800 5802 5804 5806 5808 5809 5810 5813 5814 5816 5819 5820 5822 5824 5829 5833 5834 5841 5840 5840 5842 5840 5843 5846 5853 5852 5851 5856
5776 5777 5777 5778 5778 5779 5780 5781 5782 5784 5785 5787 5788 5790 5791 5792 5794 5795 5797 5798 5800 5802 5803 5804 5805 5808 5810 5812 5814 5815 5818 5822 5825 5825 5829 5832 5829 5832 5833 5834 5836 5839 5845 5842 5846
5780 5779 5779 5780 5780 5781 5781 5781 5782 5784 5784 5785 5787 5788 5790 5790 5791 5793 5794 5795 5796 5797 5799 5799 5800 5802 5804 5805 5807 5809 5813 5813 5816 5818 5819 5825 5822 5823 5824 5827 5828 5831 5834 5836 5836
5783 5782 5781 5780 5781 5781 5781 5781 5782 5782 5783 5784 5785 5786 5788 5788 5790 5789 5791 5792 5793 5793 5794 5794 5795 5797 5797 5799 5800 5803 5804 5805 5808 5809 5810 5814 5818 5817 5817 5820 5820 5821 5823 5826 5825
5785 5784 5783 5782 5781 5781 5781 5781 5781 5782 5782 5783 5784 5784 5786 5786 5785 5785 5785 5787 5787 5788 5788 5789 5789 5790 5791 5793 5794 5795 5797 5798 5799 5800 5801 5802 5806 5811 5814 5812 5811 5812 5814 5816 5819
5787 5785 5784 5783 5781 5780 5780 5779 5779 5779 5779 5780 5781 5781 5782 5783 5781 5781 5781 5782 5783 5783 5783 5783 5783 5785 5785 5786 5786 5787 5789 5792 5794 5795 5795 5795 5798 5802 5814 5808 5805 5806 5807 5806 5808
5789 5787 5785 5783 5783 5781 5779 5778 5777 5777 5776 5777 5777 5777 5778 5779 5777 5776 5776 5777 5777 5777 5777 5777 5778 5777 5778 5777 5777 5779 5781 5783 5785 5785 5785 5783 5787 5794 5798 5796 5798 5800 5800 5799 5799
5790 5788 5786 5784 5783 5781 5780 5779 5778 5777 5776 5775 5774 5773 5773 5773 5773 5772 5770 5771 5772 5772 5771 5771 5772 5772 5771 5772 5771 5771 5773 5776 5778 5773 5775 5772 5779 5785 5784 5779 5785 5790 5789 5790 5789
5789 5787 5785 5783 5781 5780 5779 5778 5777 5776 5775 5774 5773 5772 5771 5770 5770 5769 5768 5766 5765 5765 5765 5765 5765 5766 5765 5766 5767 5765 5766 5766 5768 5764 5762 5760 5770 5772 5768 5767 5771 5776 5781 5781 5780
5785 5784 5783 5781 5779 5777 5777 5776 5775 5774 5773 5772 5771 5771 5768 5767 5765 5765 5764 5763 5762 5761 5760 5759 5759 5759 5759 5759 5760 5759 5757 5758 5758 5757 5754 5755 5760 5761 5760 5760 5763 5763 5766 5768 5770
5782 5780 5778 5777 5775 5774 5772 5772 5773 5772 5769 5769 5768 5766 5765 5764 5761 5760 5759 5759 5758 5757 5756 5755 5755 5753 5751 5750 5751 5750 5749 5749 5750 5750 5749 5748 5750 5751 5746 5749 5751 5751 5752 5754 5756
5779 5776 5774 5772 5771 5769 5768 5767 5766 5766 5764 5763 5762 5760 5760 5758 5758 5755 5755 5755 5753 5751 5750 5750 5750 5747 5746 5744 5742 5742 5741 5742 5742 5742 5740 5739 5737 5738 5737 5737 5740 5742 5742 5743 5744
5775 5773 5770 5767 5766 5764 5762 5761 5760 5760 5760 5757 5755 5755 5753 5753 5751 5751 5750 5748 5747 5746 5743 5743 5744 5741 5739 5738 5735 5734 5733 5733 5731 5731 5729 5727 5726 5729 5730 5730 5731 5730 5731 5732 5734
5771 5769 5766 5763 5763 5759 5757 5755 5755 5753 5754 5753 5750 5747 5746 5744 5745 5743 5743 5742 5740 5739 5736 5739 5736 5734 5732 5731 5729 5725 5727 5723 5721 5718 5716 5718 5711 5720 5723 5722 5721 5720 5720 5719 5719
5766 5763 5761 5758 5756 5754 5752 5750 5748 5747 5747 5747 5744 5742 5742 5740 5740 5735 5734 5733 5732 5731 5730 5731 5728 5725 5724 5724 5720 5717 5716 5713 5711 5708 5705 5704 5704 5708 5709 5709 5710 5709 5707 5704 5705
5760 5757 5753 5751 5750 5748 5746 5745 5743 5742 5737 5736 5736 5734 5736 5733 5731 5728 5727 5724 5722 5722 5719 5721 5719 5715 5716 5714 5711 5706 5703 5701 5698 5696 5692 5695 5694 5693 5698 5697 5696 5694 5692 5691 5690
5754 5750 5746 5744 5742 5741 5740 5739 5738 5734 5732 5728 5725 5726 5727 5727 5725 5719 5717 5716 5715 5710 5710 5708 5711 5710 5708 5703 5702 5698 5695 5690 5688 5686 5682 5686 5680 5680 5684 5687 5682 5682 5682 5680 5680
5745 5743 5740 5737 5734 5733 5732 5731 5729 5726 5722 5721 5718 5718 5717 5716 5715 5712 5710 5707 5704 5700 5695 5693 5696 5701 5700 5696 5690 5687 5688 5684 5674 5675 5672 5674 5666 5672 5675 5672 5669 5669 5670 5667 5668
5737 5734 5732 5729 5726 5725 5724 5722 5721 5718 5716 5713 5714 5713 5712 5710 5704 5705 5704 5702 5700 5696 5691 5686 5684 5687 5689 5688 5686 5681 5677 5676 5669 5665 5657 5657 5657 5659 5662 5660 5657 5655 5657 5658 5658
5730 5725 5722 5720 5718 5716 5715 5713 5712 5711 5709 5707 5706 5705 5705 5704 5701 5697 5696 5696 5691 5686 5682 5679 5672 5679 5680 5678 5678 5670 5669 5666 5661 5654 5647 5643 5643 5646 5651 5649 5645 5645 5645 5647 5648
5720 5717 5714 5709 5709 5708 5706 5705 5703 5700 5700 5700 5699 5697 5695 5694 5692 5692 5688 5688 5683 5676 5674 5672 5669 5666 5667 5667 5665 5663 5658 5654 5651 5644 5636 5631 5631 5636 5634 5634 5635 5633 5637 5636 5636
5708 5706 5705 5701 5700 5697 5696 5696 5694 5693 5690 5691 5688 5687 5686 5684 5682 5681 5680 5675 5675 5669 5664 5665 5659 5658 5658 5656 5655 5650 5645 5643 5638 5633 5626 5621 5614 5624 5624 5623 5626 5623 5623 5623 5627
5699 5697 5694 5691 5690 5687 5687 5686 5685 5684 5683 5680 5678 5678 5677 5675 5670 5671 5669 5667 5661 5660 5656 5654 5652 5648 5647 5647 5645 5639 5634 5629 5623 5617 5614 5606 5602 5613 5613 5609 5609 5611 5611 5613 5617
5694 5689 5686 5682 5679 5679 5676 5676 5675 5674 5674 5672 5671 5670 5667 5666 5663 5658 5660 5657 5654 5650 5646 5642 5641 5639 5638 5634 5629 5624 5623 5619 5613 5607 5603 5596 5594 5600 5602 5598 5604 5604 5602 5603 5606
5686 5682 5679 5675 5671 5669 5666 5666 5666 5666 5664 5664 5664 5661 5658 5657 5655 5651 5647 5646 5644 5641 5638 5634 5631 5630 5630 5622 5616 5613 5611 5609 5604 5602 5596 5594 5589 5589 5589 5593 5593 5596 5597 5595 5594
5679 5676 5671 5668 5665 5660 5658 5656 5655 5655 5654 5655 5653 5653 5650 5647 5643 5644 5639 5637 5637 5634 5630 5626 5622 5619 5618 5613 5608 5607 5605 5601 5598 5595 5592 5588 5586 5585 5583 5581 5583 5583 5583 5584 5583
5672 5668 5665 5661 5655 5652 5650 5647 5647 5644 5647 5644 5644 5642 5641 5639 5636 5632 5629 5629 5627 5626 5622 5619 5615 5611 5611 5606 5604 5601 5598 5596 5593 5589 5587 5584 5583 5580 5577 5575 5574 5573 5573 5574 5573
Wind_Speed
18 15 12 10 8 10 13 15 17 18 19 19 20 20 20 20 21 21 22 24 26 26 27 28 27 29 29 29 33 34 33 28 26 31 29 34 41 45 48 45 47 52 45 54 60
15 13 11 9 8 6 4 5 9 12 14 16 17 18 19 19 20 21 22 24 25 26 28 29 31 31 31 30 32 34 32 30 29 31 30 28 36 40 46 48 45 38 42 56 57
15 14 12 11 10 9 8 7 5 4 4 5 6 6 7 7 11 11 14 17 20 23 26 30 32 33 33 35 35 36 35 34 34 35 36 32 36 40 44 48 49 46 37 46 50
11 10 8 7 6 5 4 4 4 4 4 5 5 5 5 6 10 11 13 14 16 19 21 23 25 28 31 33 36 39 40 40 36 36 37 38 35 41 44 45 47 50 51 48 53
9 6 4 3 3 2 2 2 3 3 4 5 5 6 6 7 12 12 13 14 16 19 21 24 27 29 31 31 32 34 35 39 41 41 41 39 40 41 41 46 48 49 50 51 52
11 9 7 4 0 2 3 4 5 6 7 8 9 10 10 11 14 15 14 15 15 16 18 21 25 26 27 28 31 33 36 36 37 39 41 43 42 42 37 40 45 48 48 52 54
8 7 6 5 6 5 4 4 4 5 6 8 10 12 14 15 17 19 20 18 18 19 19 19 19 20 20 23 28 31 33 32 31 32 33 36 41 42 37 35 37 41 45 50 52
6 5 4 2 1 0 2 4 4 3 4 4 5 7 7 9 12 18 22 22 21 21 22 21 20 20 21 21 23 25 27 28 26 31 30 32 42 38 37 41 42 42 45 53 56
6 5 4 4 4 4 3 3 5 7 6 8 11 9 10 10 9 11 13 17 18 20 23 24 24 23 25 23 23 25 25 26 26 30 37 40 43 42 44 45 47 47 45 44 49
10 10 11 9 8 8 8 8 7 8 9 8 11 11 13 14 14 13 15 14 15 16 20 23 23 24 26 27 27 29 31 30 30 33 38 40 38 40 44 45 48 48 49 49 48
13 13 14 16 15 14 12 12 12 12 11 11 13 13 12 15 16 17 16 18 17 19 21 21 20 22 25 28 29 32 33 34 33 35 36 38 35 36 41 40 42 44 47 48 49
16 16 15 16 17 18 18 17 16 15 17 15 15 18 15 16 17 18 17 18 19 22 22 23 21 25 26 28 30 31 32 32 33 33 35 36 40 40 41 45 43 42 42 42 43
20 19 18 17 18 18 19 18 18 18 15 21 20 19 20 19 19 18 19 19 20 20 23 24 23 28 30 31 34 35 34 32 33 33 36 39 42 41 43 44 45 47 46 45 44
24 24 23 21 20 19 20 21 18 17 17 18 20 20 19 18 21 23 21 20 21 22 26 23 25 28 30 30 31 35 32 35 36 39 43 40 47 40 36 38 50 56 58 52 45
25 27 27 25 23 22 20 20 20 20 20 18 18 20 21 23 22 25 25 25 26 27 29 24 27 30 32 30 33 38 36 38 39 40 44 46 47 43 39 39 39 42 45 49 49
28 28 29 29 26 26 23 20 19 20 23 25 23 23 18 17 20 25 27 28 29 30 32 28 29 33 33 32 34 39 40 40 43 45 50 46 46 45 37 35 35 37 39 42 46
32 31 30 28 27 26 25 23 20 21 23 25 26 23 19 18 22 28 29 27 29 32 30 30 25 25 30 35 38 41 43 48 49 47 51 45 49 48 41 38 42 39 33 37 40
35 32 30 30 29 28 27 24 21 24 27 27 29 27 27 27 27 29 31 33 35 34 39 40 35 28 31 34 39 41 40 41 47 49 53 51 56 50 40 43 44 41 33 39 34
31 33 32 30 30 27 29 24 23 25 27 28 27 26 26 29 34 33 32 33 34 38 42 44 44 38 33 31 34 41 45 45 50 55 58 58 57 54 39 41 43 46 35 41 39
28 29 33 33 31 28 28 25 24 25 26 28 28 27 25 28 31 36 35 33 37 40 43 44 48 39 35 37 35 41 41 42 50 57 59 63 64 61 54 51 41 35 39 41 43
34 32 32 36 33 31 27 27 26 29 27 27 27 28 28 29 30 30 33 30 34 42 43 42 41 44 40 37 34 33 38 43 48 52 57 61 60 54 47 39 39 34 29 34 39
33 33 34 35 36 34 31 28 31 30 31 27 28 30 29 30 31 30 29 33 32 37 41 38 41 41 39 37 34 36 42 43 47 53 56 53 54 39 50 39 37 24 33 30 39
34 34 32 32 32 35 33 30 29 31 30 30 32 31 28 29 35 30 29 29 33 33 34 36 36 38 37 38 38 41 44 44 46 50 50 55 53 45 40 28 43 41 38 30 37
33 33 34 34 35 34 34 32 30 31 31 32 33 32 32 31 30 33 28 28 28 29 32 36 37 37 39 41 43 43 33 31 34 35 37 39 36 35 33 36 36 28 37 34 37
36 34 32 32 33 34 36 36 33 30 33 33 31 32 32 31 29 30 30 28 26 29 32 35 37 39 36 39 39 34 25 21 26 26 28 19 23 23 30 29 34 33 31 33 37
37 35 35 32 32 32 33 36 35 33 33 30 31 28 30 31 32 28 30 29 25 26 30 34 37 38 33 27 29 23 19 23 21 20 22 25 28 23 19 23 27 30 34 34 35
37 37 34 31 32 30 29 33 34 39 33 33 30 30 29 29 30 31 29 26 26 26 30 31 32 32 21 22 16 16 19 20 19 21 24 26 26 28 29 28 28 30 32 31 35
Wind_Direction
113 126 137 150 171 189 198 201 207 215 221 227 230 232 234 237 239 239 235 236 236 234 237 239 239 242 244 241 243 242 243 246 246 244 238 234 237 239 249 242 227 236 230 239 238
81 83 86 89 98 110 140 198 216 221 225 229 232 233 235 237 238 240 239 240 240 240 242 242 243 241 245 246 245 247 246 245 245 242 237 228 235 238 241 244 240 226 225 242 248
75 81 84 85 86 89 97 110 125 152 185 205 218 225 228 225 232 238 240 243 244 243 242 243 244 245 246 245 248 248 247 246 243 243 244 235 238 231 242 243 245 242 233 232 242
60 65 76 82 88 99 110 115 132 155 175 191 206 222 236 244 244 246 247 250 252 252 251 251 249 248 248 247 247 246 246 247 248 247 246 243 230 234 243 247 247 248 248 247 255
63 64 63 78 94 108 143 167 174 199 220 235 244 248 243 239 246 247 249 255 257 258 258 257 256 255 254 254 255 254 251 248 246 247 249 248 244 237 246 251 251 252 254 257 258
44 41 41 24 12 204 239 242 237 240 246 249 252 253 253 252 258 260 256 260 262 266 265 260 260 262 260 258 254 254 253 253 253 254 254 256 255 253 245 249 255 257 262 263 264
59 61 52 47 28 349 310 273 265 263 260 261 259 256 254 249 254 262 258 259 261 262 264 268 270 264 257 254 254 254 253 253 256 260 262 265 253 252 250 245 242 251 257 261 263
29 37 47 40 336 92 326 296 286 279 273 267 273 272 275 258 252 250 262 258 254 256 263 266 267 269 265 263 263 260 260 256 255 256 253 255 250 249 253 256 248 244 242 244 253
325 327 332 331 321 309 295 294 286 268 276 263 257 266 272 265 257 252 250 257 264 260 258 260 260 262 266 265 265 267 259 256 246 250 251 251 256 250 244 246 251 252 247 248 248
295 298 297 293 287 288 291 293 287 283 288 279 276 270 270 269 270 257 249 257 264 261 259 262 262 260 262 265 266 265 266 260 253 245 253 253 264 264 259 256 259 254 254 250 248
299 290 289 288 287 285 277 278 281 283 280 282 281 281 270 263 265 272 264 261 264 265 267 266 268 263 261 262 261 260 260 263 265 265 264 262 267 261 262 258 254 254 250 251 253
298 292 289 290 290 287 282 277 278 276 286 281 275 279 276 273 265 271 266 265 268 268 266 268 267 266 265 266 266 263 263 263 264 264 267 264 261 261 257 263 268 267 267 267 266
300 293 289 287 288 288 288 287 285 281 270 282 281 276 276 273 269 272 267 273 273 271 269 272 271 267 267 266 268 268 270 271 271 263 261 264 265 265 265 267 270 272 273 271 270
299 295 292 289 288 285 283 284 287 286 282 277 276 274 273 270 268 271 267 270 270 268 270 278 273 272 273 274 279 275 278 276 274 272 273 267 271 265 267 264 258 262 271 274 269
299 291 288 285 287 283 280 283 287 287 279 270 262 262 266 263 263 273 274 270 271 272 271 271 270 269 272 274 266 273 273 272 273 272 274 274 277 282 277 270 269 264 263 262 261
317 308 287 283 281 282 281 280 277 279 279 279 270 267 269 260 271 271 269 273 275 272 272 271 269 273 274 274 273 271 268 268 271 276 277 284 285 275 281 290 286 282 276 269 268
311 310 305 289 277 278 281 281 277 270 274 278 279 286 291 281 266 272 278 281 285 288 281 275 269 263 269 270 271 270 271 273 271 269 280 283 280 280 292 290 292 283 265 260 259
305 301 304 307 289 273 274 275 268 264 268 273 279 288 294 288 285 286 291 293 296 290 289 289 287 282 286 283 279 278 273 269 277 278 280 279 277 286 284 284 281 271 273 267 271
301 294 295 299 300 285 271 267 267 261 266 273 277 279 282 283 285 282 284 283 281 286 286 286 285 293 292 286 275 274 271 269 267 270 275 281 282 284 277 276 273 265 274 270 268
297 291 290 292 295 293 275 262 262 263 266 274 281 279 273 268 271 277 282 284 283 280 282 284 287 289 287 285 275 273 275 272 270 272 273 275 278 279 276 281 277 271 261 256 263
295 285 286 285 290 290 281 263 260 265 271 272 279 282 278 275 275 273 276 277 278 280 280 282 284 289 289 286 285 271 267 271 275 274 276 282 283 283 282 275 280 276 266 259 263
296 291 291 289 286 286 283 269 264 261 268 273 278 277 283 286 283 286 281 279 273 272 276 280 283 285 285 285 287 287 284 278 275 275 277 276 275 268 277 279 272 267 267 253 257
307 297 292 291 291 286 284 280 276 268 265 264 271 280 286 283 285 290 287 282 280 281 280 280 282 284 286 289 292 288 288 287 282 279 283 277 277 278 277 282 272 272 265 260 247
323 311 299 293 290 289 286 283 280 275 269 273 277 281 284 286 288 291 285 283 282 279 279 281 283 286 291 295 294 291 285 276 279 287 296 290 290 275 271 269 276 279 253 254 247
325 322 311 300 291 288 286 282 283 273 271 273 279 283 284 286 286 291 286 282 273 274 279 284 289 292 296 294 290 290 294 293 284 287 299 319 315 298 261 265 264 261 273 256 259
327 323 318 310 295 288 284 282 282 282 285 283 284 283 284 290 293 290 285 284 277 277 283 285 291 294 296 286 283 293 285 287 295 291 288 301 313 298 281 269 262 261 259 254 258
326 324 316 312 306 294 284 278 277 279 281 286 286 286 286 289 292 293 288 281 280 282 283 287 290 292 297 287 291 294 289 291 288 284 285 285 298 289 284 274 281 276 265 258 260